Free Severe Weather Alerts by Email and Text Message   

 
Follow iAlert.com on twitter @ialertcom
Search For Active Alerts in Your Area  
  Hi Guest:  [ Sign-up / Services ] [ Login ]

Current weather by "City, St" or "zip code"  

 

Advertise Here

Hazardous Weather Conditions

No active alerts for CHICAGO, ILLINOIS

Current Conditions: CHICAGO, ILLINOIS

A Few Clouds


83.0 F

Last Updated on Aug 16 2018, 5:52 pm CDT
Humidity: 55%
Wind Speed: E 5.8 mph
Barometer 29.93 in
Dewpoint: 64.9 F
Visibility: 10.00 mi
Precip: --
Heat Index: 85 F
Wind Chill: NA
Current conditions at:

Chicago / Wheeling, Pal-Waukee Airport, IL (KPWK)

Lat: 42.12 Lon: -87.904

Local Radar Image active severe weather and emergency alerts image image weather storm and storm spotter reports image weather observation monitoring service image
Local
Radar
Active
Alerts
Storm Reports Weather
Monitoring

Weather Alert Notification Services


ialert severe weather and emergency alerts by text message and email ialert daily weather forecast by email and text message service ialert real-time weather-observation monitoring and alert notification service ialert storm report monitoring alert notification

Observation History for CHICAGO, ILLINOIS


Time Wind
(mph)
Vis
(mi)
Weather Precip (in) Temperature (F) Relative
Humidity
Wind
Chill
(°F)
Heat
Index
(°F)
Pressure
Air Dwpt altimeter
(in)
sea level
(mb)
5:52 pm CDT E 5.8 10.00 A Few Clouds -- 83.0 64.9 55% NA 85 29.93 1013.0
4:52 pm CDT NE 9.2 10.00 Fair -- 85.0 66.9 55% NA 88 29.92 1012.7
3:52 pm CDT E 6.9 10.00 Fair -- 85.0 66.0 53% NA 87 29.93 1013.0
2:52 pm CDT NE 5.8 10.00 Fair -- 85.0 66.9 55% NA 88 29.94 1013.4
1:52 pm CDT E 6.9 10.00 Partly Cloudy -- 82.0 66.9 60% NA 84 29.96 1014.1
12:52 pm CDT 5.8 10.00 A Few Clouds -- 83.0 68.0 61% NA 86 29.97 1014.2
11:52 am CDT E 8.1 10.00 Partly Cloudy -- 81.0 66.9 62% NA 83 29.97 1014.3
10:52 am CDT 6.9 10.00 A Few Clouds -- 80.0 68.0 67% NA 83 29.97 1014.5
9:52 am CDT E 4.6 10.00 Overcast -- 79.0 69.1 72% NA NA 29.97 1014.6
8:52 am CDT N 0.0 10.00 Mostly Cloudy -- 77.0 68.0 74% NA NA 29.97 1014.4
7:52 am CDT N 0.0 10.00 Fair -- 77.0 69.1 77% NA NA 29.97 1014.5
6:52 am CDT N 0.0 8.00 Fair -- 73.0 69.1 87% NA NA 29.96 1014.0
5:52 am CDT N 0.0 8.00 Partly Cloudy -- 71.0 66.9 87% NA NA 29.94 1013.5
4:52 am CDT N 0.0 10.00 Mostly Cloudy -- 73.0 68.0 84% NA NA 29.93 1013.0
3:52 am CDT N 0.0 10.00 A Few Clouds -- 72.0 68.0 87% NA NA 29.93 1013.0
2:52 am CDT N 0.0 10.00 Overcast -- 73.0 68.0 84% NA NA 29.93 1013.1
1:52 am CDT N 0.0 10.00 Overcast -- 72.0 68.0 87% NA NA 29.93 1013.0
12:52 am CDT SE 3.5 10.00 Mostly Cloudy -- 73.0 68.0 84% NA NA 29.94 1013.2
11:52 pm CDT N 0.0 10.00 Overcast -- 74.0 69.1 85% NA NA 29.95 1013.7
10:52 pm CDT SW 5.8 10.00 Fair 00.01 74.0 68.0 82% NA NA 29.94 1013.3
9:52 pm CDT N 0.0 8.00 Light Rain 00.08 75.0 71.1 88% NA NA 29.94 1013.4
8:52 pm CDT SE 8.1 2.50 Thunderstorm Heavy Rain 00.67 72.0 66.9 84% NA NA 29.93 1013.2
7:52 pm CDT SW 6.9 9.00 Thunderstorm Light Rain 00.02 75.0 70.0 84% NA NA 29.93 1012.9
6:52 pm CDT E 4.6 10.00 Overcast -- 80.0 68.0 67% NA 83 29.91 1012.3

Regional Weather Observation:


Chicago, Chicago-OHare International Airport, IL (KORD)

Mostly Cloudy
83.0 F

Chicago/Waukegan Regional Airport, IL (KUGN)

Fair
78.0 F

Chicago, Chicago Midway Airport, IL (KMDW)

Mostly Cloudy
81.0 F

Kenosha, Kenosha Regional Airport, WI (KENW)

Fair
81.0 F

Chicago / West Chicago, Dupage Airport, IL (KDPA)

Partly Cloudy with Haze
83.0 F

Racine, Batten International Airport, WI (KRAC)

Fair
77.0 F

Advertise Here


Advertise Here